Location: Crescent
(42.8242°N, 73.7329°W)
Time: 21:18:49
(UTC+00:00)

Vanguard 2 Rocket - Pass Details

Date: 22 February 2026
Orbit: 553 x 3286 km, 32.9° (Epoch: 9 March)

Event Time Altitude Azimuth Distance (km) Brightness Sun altitude
Rises 13:14:04 0° 196° (SSW) 6,616 11.5 14.9°
Reaches altitude 10° 13:19:39 10° 184° (S) 5,904 11.5 15.8°
Maximum altitude 13:33:06 24° 139° (SE) 5,100 12.6 17.9°
Drops below altitude 10° 13:46:30 10° 95° (E) 5,957 12.2 19.9°
Sets 13:52:02 0° 83° (E) 6,694 12.0 20.7°
